LogoCoinalyze
    Ad-Free Version ホーム マーケット一覧 資金調達率一覧
    先物データ
    • 集計データ (コイン一覧)
    • 個別チャート
    • 全体チャート
    アラート
    TA
    Bitcoin Ethereum BNB Ripple Tron ZCash Dogecoin Monero UNUS SED LEO Chainlink Cardano Stellar Lumens Bitcoin Cash Litecoin Hedera Cronos Polkadot Ethereum Classic Algorand Quant Cosmos VeChain Dash Bitcoin SV BitTorrent Terra Decred Tezos Iota The Graph THETA Decentraland NEO Chiliz MultiversX Golem Basic Attention Token Horizen Qtum 0x DigiByte Beam FTX Token RIF Token Holo FUNToken Zilliqa Ontology Nano aelf Enjin Coin Ravencoin Mask Network Siacoin Verge Status WINk Waves IoTeX iExec RLC Power Ledger Steem Kyber Network Crystal Lisk Ark Ardor IOST WOO Network WAX Icon Storj Loopring Wanchain Bitcoin Diamond AdEx Bitcoin Gold Augur OmiseGO NEM MonaCoin BitShares Ren Komodo V Systems Nuls Mithril SOLVE Maker EOS Aion Nebulas HedgeTrade Bread Fetch.ai TomoChain Polygon Fantom Waltonchain GXChain Bytom Metaverse ETP MaidSafeCoin QASH
    注文する:
    その他
    • API
    • ローソク足パターン
    • 寄付する
    • お問い合わせ
    • サイトマップ
    • Privacy Policy
    • Disclaimer
    • Theme:
    日本語
    • English
    • Français
    • Русский
    • Deutsch
    • Türkçe
    • Nederlands
    • Português (BR)
    • Español
    • 한국어
    • 简体中文
     
    ログイン / サインアップ
    Markets/ Pepe/ PEPE to USDT/ PEPEUSDT Poloniex
    Trades
    WL
    チャット
    統計
    ニュース
    ⦷
    AAA
    0.00000340029 5462817.00000000 13:05:15
    0.00000340092 29403808.00000000 13:05:15
    0.00000340092 29403808.00000000 13:05:13
    0.00000339897 28503254.00000000 13:05:12
    0.00000339908 25996807.00000000 13:05:11
    0.00000340014 29410553.00000000 13:05:11
    0.00000340080 29404845.00000000 13:05:08
    0.00000339949 22608741.00000000 13:05:07
    0.00000340084 29404500.00000000 13:05:05
    0.00000339902 21430723.00000000 13:05:02
    0.00000339963 29414965.00000000 13:05:02
    0.00000339940 9106003.00000000 13:05:01
    0.00000340054 29407094.00000000 13:05:01
    0.00000339942 18306805.00000000 13:05:01
    0.00000339991 29412543.00000000 13:05:01
    0.00000339985 29413062.00000000 13:05:00
    0.00000340077 29405105.00000000 13:04:59
    0.00000340083 28654464.00000000 13:04:58
    0.00000340086 24291431.00000000 13:04:58
    0.00000339954 29415744.00000000 13:04:58
    0.00000339926 23583370.00000000 13:04:57
    0.00000339929 29417907.00000000 13:04:57
    0.00000340051 29407353.00000000 13:04:56
    0.00000339917 29418946.00000000 13:04:56
    0.00000340052 27886126.00000000 13:04:55
    0.00000339948 23033370.00000000 13:04:55
    0.00000340035 5899123.00000000 13:04:55
    0.00000339928 22497416.00000000 13:04:54
    0.00000340040 29408304.00000000 13:04:54
    0.00000340014 23925283.00000000 13:04:53
    0.00000339922 19826132.00000000 13:04:53
    0.00000340092 29403808.00000000 13:04:52
    0.00000339956 9368241.00000000 13:04:52
    0.00000339917 29418946.00000000 13:04:51
    0.00000340049 28433886.00000000 13:04:51
    0.00000340068 29405883.00000000 13:04:50
    0.00000340006 25769395.00000000 13:04:50
    0.00000339945 29416523.00000000 13:04:49
    0.00000339965 29414792.00000000 13:04:48
    0.00000339952 29415917.00000000 13:04:48
    0.00000340009 29410986.00000000 13:04:47
    0.00000339913 19647349.00000000 13:04:46
    0.00000339976 29413840.00000000 13:04:46
    0.00000339960 29415225.00000000 13:04:46
    0.00000339922 29418513.00000000 13:04:45
    0.00000340057 23677590.00000000 13:04:44
    0.00000339905 29419984.00000000 13:04:44
    0.00000339911 26488419.00000000 13:04:43
    0.00000339899 27419688.00000000 13:04:43
    0.00000340075 29405278.00000000 13:04:42
    0.00000340052 10466086.00000000 13:04:41
    0.00000340098 29403289.00000000 13:04:41
    0.00000339957 29415484.00000000 13:04:40
    0.00000339940 29416955.00000000 13:04:40
    0.00000339888 25297409.00000000 13:04:39
    0.00000340071 14339304.00000000 13:04:38
    0.00000340057 29406834.00000000 13:04:37
    0.00000340100 13084330.00000000 13:04:37
    0.00000340052 11596365.00000000 13:04:36
    0.00000340060 24840461.00000000 13:04:35
    0.00000340081 18621860.00000000 13:04:35
    0.00000339997 29412024.00000000 13:04:34
    0.00000340045 26535358.00000000 13:04:33
    0.00000339919 25523999.00000000 13:04:33
    0.00000340054 21991358.00000000 13:04:32
    0.00000340074 15477315.00000000 13:04:32
    0.00000340003 25513094.00000000 13:04:31
    0.00000339933 29417561.00000000 13:04:31
    0.00000339914 21864459.00000000 13:04:30
    0.00000339919 6220733.00000000 13:04:30
    0.00000339931 29417734.00000000 13:04:29
    0.00000339994 23972542.00000000 13:04:29
    0.00000339959 29415311.00000000 13:04:28
    0.00000340097 29403376.00000000 13:04:27
    0.00000339922 29418513.00000000 13:04:27
    0.00000340011 26786745.00000000 13:04:26
    0.00000339936 29417302.00000000 13:04:26
    0.00000339905 29419984.00000000 13:04:25
    0.00000340037 29408564.00000000 13:04:25
    0.00000340089 18613342.00000000 13:04:24
    0.00000339957 14048627.00000000 13:04:24
    0.00000339914 6417339.00000000 13:04:23
    0.00000339966 11992364.00000000 13:04:23
    0.00000340046 29407786.00000000 13:04:22
    0.00000340083 17238608.00000000 13:04:22
    0.00000339945 21796162.00000000 13:04:21
    0.00000340080 29404845.00000000 13:04:21
    0.00000340068 29405883.00000000 13:04:21
    0.00000340003 13311925.00000000 13:04:21
    0.00000339997 29412024.00000000 13:04:20
    0.00000339997 29412024.00000000 13:04:20
    0.00000340018 22705738.00000000 13:04:19
    0.00000340080 29404845.00000000 13:04:19
    0.00000340029 29409256.00000000 13:04:18
    0.00000340060 29406575.00000000 13:04:18
    0.00000339977 29413754.00000000 13:04:17
    0.00000340034 29408823.00000000 13:04:17
    0.00000339914 29419206.00000000 13:04:16
    0.00000340037 300950.00000000 13:04:16
    0.00000340066 29406056.00000000 13:04:15
    ログアウト
    AAA
    ヘルプ
    🙂 🤣 😎 🤗 😛 😉 😜 🤑 🤔 😑 😴 😕 🙃 😲 😇 🙁 😢 😬 😟 😠 🕺 🏃 💪 ✌ 👌 👍 👎 👏 👋 🤝 🍺 🍻 🐋 🐟 🦈 🗽 🚄 ✈ 🛑 🚀 🏦 🌚 ⭐ 🌞 ⚡ 🏆 💰 💲 🔨 ❓ ❗ 💯 🔶 🏁
    ☺
    ログイン または サインアップ してチャット
    24時間
    変化
    -2.27%
    出来高
    1,540,946,498,366
    最高値
    0.00000355102
    最安値
    0.00000336884
    7日間
    変化
    -10.98%
    出来高
    13,548,058,958,775
    最高値
    0.00000444573
    最安値
    0.00000335957
    30日間
    変化
    +17.26%
    出来高
    54,503,767,145,160
    最高値
    0.00000456134
    最安値
    0.00000252970
    Pepe price rallies 25% as whale demand and futures interest surge
    Key takeaways Pepe has gained 25% this week, including a combined 22% advance over the previous two days. Seven whale transactions worth more than $1 million each occurred Thursday, the highest...
    coinjournal.net
    Aug 21, 2026 08:41
    PEPE Supply on Exchanges Just Took a Massive Hit – What’s Next?
    A drop in PEPE exchange balances has added to bullish expectations despite muted trader interest.
    cryptopotato.com
    Aug 6, 2026 20:02
    PEPE Exchange Outflows Hit Nearly 2-Year High as Whales Accumulate
    Pepe (PEPE) recorded its largest single-day exchange outflow since November 2024, with 4.54 trillion tokens leaving trading platforms, signaling that holders are moving supply away from immediate...
    beincrypto.com
    Aug 6, 2026 04:57
    Meme Coin Based on White House Shooter Conspiracy Rallies 320%
    $HENRY surged 300% after a 2023 Pepe tweet appeared to name the White House shooter, fueling a viral time-travel meme. The post Meme Coin Based on White House Shooter Conspiracy Rallies 320%...
    beincrypto.com
    Apr 27, 2026 16:11
    PEPE surges 4% as market sentiment improves, eyes Key resistance breakout
    Key takeaways Pepe extends gains on Wednesday, stretching its rally from the 50-day EMA. Derivatives data show heightened retail activity as risk-on sentiment returns to the market. Pepe (PEPE) is...
    coinjournal.net
    Apr 22, 2026 11:44
    Why The PEPE Price Could Stage A 55X Rally To Reach New $0.0001 ATH
    The PEPE price has now started to edge back into bullish conversations after the recent inflows into the crypto market. The last time PEPE’s weekly chart printed the kind of structure now...
    newsbtc.com
    Apr 21, 2026 15:30
    Pepe (PEPE) surges 9%, drawing interest from whales
    Key takeaways PEPE is up 9% in the last 24 hours, making it one of the best performers among the top 50 cryptocurrencies by market cap. The rally comes amid renewed interest from whales and retail...
    coinjournal.net
    Apr 16, 2026 07:40
    Murad Says SPX6900 (SPX) Is Primed for a Rally — Is He Right This Time?
    Crypto influencer Murad Mahmudov claims SPX6900 (SPX) is stabilizing at the same market cap level where Dogecoin (DOGE) and Pepe (PEPE) consolidated before their explosive rallies. The...
    beincrypto.com
    Apr 5, 2026 21:36
    The Shiba Inu Of This Cycle: Analyst Shares Why It Is Better To Buy PEPE Now
    In the bull market cycle of 2021-2022, the Shiba Inu meme coin made waves in a way that changed the face of meme coins forever. This came after Dogecoin’s initial 36,000% rally, and Shiba Inu...
    newsbtc.com
    Apr 4, 2026 07:30
    PEPE Explodes by 18% Amid Altcoin Rally, BTC Tapped $74K: Market Watch
    The frog-themed meme coin is today's biggest gainer, followed by TAO, DOT, and BONK.
    cryptopotato.com
    Mar 16, 2026 10:56
    Should PEPE traders brace for volatility as short squeeze potential builds?
    The memecoin market has seen its collective market capitalization drop by 48% over the past year, and 6.9% over the past month, according to CoinMarketCap. According to Glassnode, the memecoin...
    ambcrypto.com
    Mar 7, 2026 18:00
    チャットでコマンドを入力するだけです。 nick1を実際のニックネームに置き換えてください
    • /ignore nick1 チャットユーザーを無視する
    • /unignore nick1 チャットユーザーを無視しない
    • /ignorelist 無視したチャットユーザーを表示する